Location: Unspecified
(0.0000°N, 0.0000°E)
Time: 17:24:54
(UTC+00:00)

STARLINK 1064 - Pass Details

Date: 23 January 2020
Orbit: 549 x 551 km, 53.0° (Epoch: 23 January)

Event Time Altitude Azimuth Distance (km) Brightness Sun altitude
Exits shadow 04:02:01 29° 109° (ESE) 1,013 5.5 -30.3°
Drops below altitude 10° 04:05:08 10° 62° (ENE) 1,812 6.7 -29.6°
Sets 04:07:33 0° 51° (NE) 2,702 7.5 -29.1°
